Regional Weather Roundup
Issued by NWS Green Bay, WI

Home | Current Version | Previous Version | Graphics & Text | Print | Product List | Glossary Off
Versions: 1 2 3 4 5 6 7 8 9 10 11 12 13 14 15 16 17 18 19 20 21 22 23 24 25 26 27 28 29 30 31 32 33 34 35 36 37 38 39 40 41 42 43 44 45 46 47 48 49 50

841
ASUS43 KGRB 251800
RWRGRB

NORTH-CENTRAL AND NORTHEAST WISCONSIN REGIONAL WEATHER ROUNDUP
NATIONAL WEATHER SERVICE GREEN BAY WI
1200 PM CST SAT FEB 25 2017

WIZ005-009-010>012-018-019-251900-
NORTH CENTRAL WISCONSIN

CITY           SKY/WX    TMP DP  RH WIND       PRES   REMARKS
IRONWOOD       LGT SNOW  15   9  76 W20       29.75R WCI  -2
MANITOWISH WTR NOT AVBL
ARBOR VITAE    NOT AVBL
EAGLE RIVER    NOT AVBL
LAND O LAKES   NOT AVBL
RHINELANDER    LGT SNOW  17   9  70 NW14G26   29.70R WCI   3
PHILLIPS       NOT AVBL
ANTIGO         NOT AVBL
TOMAHAWK       NOT AVBL
MERRILL        NOT AVBL
$$

WIZ013-073-251900-
NORTHEAST WISCONSIN

CITY           SKY/WX    TMP DP  RH WIND       PRES   REMARKS
IRON MOUNTAIN  MIX PCPN  22  10  60 NW23G31   29.62R WCI   6
MARINETTE      FLURRIES  25  16  68 NW9G18    29.69R
$$

WIZ017-030-035>037-045-251900-
CENTRAL WISCONSIN

CITY           SKY/WX    TMP DP  RH WIND       PRES   REMARKS
MEDFORD        NOT AVBL
WAUSAU         CLOUDY    16   8  71 W16       29.76R WCI   1
MOSINEE        CLOUDY    16  10  79 W20       29.78R WCI  -1
MARSHFIELD     PTSUNNY   16   5  62 NW14      29.80R WCI   2
WISC RAPIDS    CLOUDY    18   8  65 NW17G23   29.83R WCI   3
STEVENS POINT  NOT AVBL
WAUPACA        NOT AVBL
SHAWANO        CLOUDY    24  12  61 CALM      29.75R
CLINTONVILLE   NOT AVBL
WAUTOMA        FLURRIES  21  11  65 MISG        N/A
$$

WIZ038-039-048-051-251900-
FOX VALLEY

CITY           SKY/WX    TMP DP  RH WIND       PRES   REMARKS
NWS GREEN BAY  CLOUDY    22  14  71 W22G32    29.75R HAZE    WCI   6
APPLETON       CLOUDY    19  10  68 NW16      29.75R WCI   5
OSHKOSH        CLOUDY    20  11  68 W17       29.78R WCI   5
FOND DU LAC    FLURRIES  20   9  62 NW17G26   29.79S WCI   5
$$

WIZ022-050-052-251900-
EAST CENTRAL WISCONSIN

CITY           SKY/WX    TMP DP  RH WIND       PRES   REMARKS
EPHRAIM        NOT AVBL
WASHINGTON ISL NOT AVBL
STURGEON BAY   FLURRIES  24  17  74 W14G21    29.69R
MANITOWOC      CLOUDY    23  12  63 W16G28    29.74R WCI  10
SHEBOYGAN      MIX PCPN  20  12  71 W16G26    29.76R WCI   6
$$

LMZ563-521-522-541>543-251900-
LAKESHORE

STATION/POSITION TIME  TEMP    WIND        PRES    VSBY  WAVE
                       AIR SEA DIR/SP/G                  HT/PER
                 (UTC) (F)     (DEG/KT/KT) (MB)    (MI)  (FT/S)
SHEBOYGAN LKSHOR 1700   19     280/ 13/ 17 1008.3R
KEWAUNEE LKSHORE 1730   22     280/ 12/ 21 1005.6R
NORTHPORT PIER   1712   21     300/  1/  3 1003.7
SISTER BAY LKSHO 1650   23        CALM       N/A
CHAMBERS ISLAND  1740   26      CALM  /  2 1004.4R
MENOMINEE LKSHOR 1730   24     280/ 11/ 19 1004.2R
$$




USA.gov is the U.S. government's official web portal to all federal, state and local government web resources and services.